sat.trackr.live / text

‹ back to catalog

STARLINK-37542

NORAD 68917 · 2026-097Y

PAYLOAD ACTIVE UNKNOWN

§ Identity

Operator
Country
US
Launch date
2026-04-30
Launch site
AFWTR
Launch vehicle
Mass (kg)
RCS (m²)

Purposes: comms

External: N2YO · Heavens-Above · Gunter

§ Orbital elements

Epoch: 2026-05-25T02:56:14.045856Z

Period
92.95 min
Inclination
97.2852°
Eccentricity
0.0001281
Mean motion
15.49213307 rev/d
Perigee alt
418.2 km
Apogee alt
419.9 km
Semi-major
6,797.2 km
B*
1.4462e-3
RAAN
340.8486°
Arg perigee
83.3677°
Mean anomaly
276.7720°
Rev number
394

§ Raw data

STARLINK-375421 68917U 26097Y   26145.12238479  .00079427  00000+0  14462-2 0  99962 68917  97.2852 340.8486 0001281  83.3677 276.7720 15.49213307  3947

JSON: /api/v1/satellites/68917 · /tle

For live sub-satellite position, see the globe view (requires WebGL).

§ Visibility from observer

Set your observer location to see the next 7 days of passes ≥ 10°. The values pass through the URL so the page stays shareable.

No JS? Fill the form by hand. The geolocation button needs JavaScript.